KA4JMC Weather Reports


time (UTC)temp
C
wind
direction
speed
KPH
gust
KPH
rain 1hr
cm
rain 24hr
cm
rain mn
cm
humidity
%
barometer
mb
20260509192515 22 180 9.7 12.9 0.00 0.00 0.00 976.8
20260509192019 22 219 8.0 8.0 0.00 0.00 0.00 976.8
20260509191514 22 187 12.9 9.7 0.00 0.00 0.00 976.8
20260509191019 22 228 8.0 17.7 0.00 0.00 0.00 976.8
20260509190518 22 166 14.5 12.9 0.00 0.00 0.00 976.8
20260509190015 22 337 4.8 6.4 0.00 0.00 0.00 976.8
20260509185514 22 159 6.4 8.0 0.00 0.00 0.00 976.8
20260509185013 22 336 4.8 4.8 0.00 0.00 0.00 976.8
20260509184515 22 249 9.7 16.1 0.00 0.00 0.00 976.8
20260509184014 22 32 9.7 6.4 0.00 0.00 0.00 976.8
20260509183518 22 176 12.9 6.4 0.00 0.00 0.00 976.8
20260509183021 21 343 4.8 8.0 0.00 0.00 0.00 976.8
20260509182518 21 242 6.4 6.4 0.00 0.00 0.00 976.8
20260509182013 21 235 8.0 4.8 0.00 0.00 0.00 976.8
20260509181516 20 222 9.7 9.7 0.00 0.00 0.00 976.8
20260509181014 19 189 4.8 9.7 0.00 0.00 0.00 976.8
20260509180514 18 145 0.0 6.4 0.00 0.00 0.00 976.8
20260509180014 18 222 3.2 0.0 0.00 0.00 0.00 976.8
20260509175514 19 213 6.4 8.0 0.00 0.00 0.00 976.8
20260509175017 20 201 11.3 6.4 0.00 0.00 0.00 976.8
20260509174514 20 215 6.4 4.8 0.00 0.00 0.00 976.8
20260509174015 20 320 0.0 0.0 0.00 0.00 0.00 976.8
20260509173523 21 194 0.0 6.4 0.00 0.00 0.00 976.8
20260509173015 20 202 0.0 0.0 0.00 0.00 0.00 977.8
20260509172521 20 269 4.8 0.0 0.00 0.00 0.00 977.8
20260509172035 19 337 3.2 6.4 0.00 0.00 0.00 977.8
20260509171513 19 315 0.0 11.3 0.00 0.00 0.00 976.8
20260509171016 19 298 3.2 6.4 0.00 0.00 0.00 976.8
20260509170515 20 15 6.4 9.7 0.00 0.00 0.00 976.8
20260509170015 20 357 4.8 4.8 0.00 0.00 0.00 976.8
20260509165514 20 325 6.4 8.0 0.00 0.00 0.00 976.8
20260509165014 20 331 8.0 9.7 0.00 0.00 0.00 976.8
20260509164514 20 325 0.0 14.5 0.00 0.00 0.00 976.8
20260509164013 19 324 4.8 0.0 0.00 0.00 0.00 976.8
20260509163514 19 225 4.8 9.7 0.00 0.00 0.00 976.8
20260509163013 19 136 3.2 8.0 0.00 0.00 0.00 976.8
20260509162514 19 329 4.8 4.8 0.00 0.00 0.00 976.8
20260509162014 18 157 4.8 4.8 0.00 0.00 0.00 976.8
20260509161518 19 232 4.8 9.7 0.00 0.00 0.00 976.8
20260509161014 19 229 6.4 0.0 0.00 0.00 0.00 976.8
20260509160513 18 273 4.8 0.0 0.00 0.00 0.00 976.8
20260509160034 18 166 3.2 0.0 0.00 0.00 0.00 976.8
20260509155516 18 198 0.0 4.8 0.00 0.00 0.00 976.8
20260509155014 19 243 6.4 6.4 0.00 0.00 0.00 976.8
20260509154535 19 202 6.4 6.4 0.00 0.00 0.00 976.8
20260509154014 19 202 6.4 6.4 0.00 0.00 0.00 976.8
20260509153514 19 213 0.0 6.4 0.00 0.00 0.00 976.8
20260509153018 20 215 0.0 4.8 0.00 0.00 0.00 975.8
20260509152514 20 241 0.0 6.4 0.00 0.00 0.00 975.8
20260509152016 20 206 6.4 9.7 0.00 0.00 0.00 975.8
20260509151514 20 241 4.8 9.7 0.00 0.00 0.00 975.8
20260509151014 20 204 9.7 6.4 0.00 0.00 0.00 975.8
20260509150513 20 192 8.0 9.7 0.00 0.00 0.00 975.8
20260509150016 20 203 4.8 8.0 0.00 0.00 0.00 975.8
20260509145518 20 193 4.8 8.0 0.00 0.00 0.00 975.8
20260509145015 20 156 6.4 4.8 0.00 0.00 0.00 975.8
20260509144516 20 147 0.0 12.9 0.00 0.00 0.00 975.8
20260509144014 19 176 6.4 0.0 0.00 0.00 0.00 975.8
20260509143515 18 233 0.0 8.0 0.00 0.00 0.00 975.8
20260509143014 18 181 6.4 9.7 0.00 0.00 0.00 975.8
20260509142517 18 262 6.4 9.7 0.00 0.00 0.00 975.8
20260509142013 18 160 6.4 0.0 0.00 0.00 0.00 975.8
20260509141514 18 333 0.0 0.0 0.00 0.00 0.00 975.8
20260509141016 17 222 9.7 4.8 0.00 0.00 0.00 975.8
20260509140519 17 226 6.4 8.0 0.00 0.00 0.00 975.8
20260509140017 17 244 4.8 9.7 0.00 0.00 0.00 975.8
20260509135519 17 253 6.4 12.9 0.00 0.00 0.00 975.8
20260509135014 16 136 0.0 0.0 0.00 0.00 0.00 975.8
20260509134518 16 208 4.8 0.0 0.00 0.00 0.00 975.8
20260509134013 16 156 4.8 6.4 0.00 0.00 0.00 975.8
20260509133535 16 179 3.2 0.0 0.00 0.00 0.00 975.8
20260509133015 16 221 3.2 4.8 0.00 0.00 0.00 975.8
20260509132514 16 226 3.2 0.0 0.00 0.00 0.00 975.8
20260509132013 16 209 6.4 0.0 0.00 0.00 0.00 975.8
20260509131514 15 251 0.0 6.4 0.00 0.00 0.00 975.8
20260509131013 15 228 4.8 4.8 0.00 0.00 0.00 975.8
20260509130522 15 232 6.4 8.0 0.00 0.00 0.00 975.8
20260509130013 15 232 4.8 0.0 0.00 0.00 0.00 975.8
20260509125514 14 286 4.8 8.0 0.00 0.00 0.00 975.8
20260509125014 14 222 6.4 0.0 0.00 0.00 0.00 975.8
20260509124513 13 226 8.0 8.0 0.00 0.00 0.00 975.8
20260509124014 13 248 3.2 4.8 0.00 0.00 0.00 975.8
20260509123515 13 225 0.0 9.7 0.00 0.00 0.00 975.8
20260509123013 13 223 3.2 11.3 0.00 0.00 0.00 974.8
20260509122513 13 225 4.8 0.0 0.00 0.00 0.00 974.8
20260509122014 12 200 8.0 8.0 0.00 0.00 0.00 974.8
20260509121514 12 200 6.4 4.8 0.00 0.00 0.00 974.8
20260509121013 12 227 6.4 4.8 0.00 0.00 0.00 974.8
20260509120514 12 206 3.2 4.8 0.00 0.00 0.00 974.8
20260509120013 12 233 0.0 0.0 0.00 0.00 0.00 975.8
20260509115517 11 223 6.4 6.4 0.00 0.00 0.00 975.8
20260509115013 11 196 0.0 0.0 0.00 0.00 0.00 975.8
20260509114517 11 225 4.8 3.2 0.00 0.00 0.00 974.8
20260509114014 11 250 4.8 4.8 0.00 0.00 0.00 974.8
20260509113514 11 206 0.0 0.0 0.00 0.00 0.00 974.8
20260509113025 11 252 0.0 0.0 0.00 0.00 0.00 974.8
20260509112516 11 206 0.0 0.0 0.00 0.00 0.00 974.8
20260509112024 11 240 3.2 0.0 0.00 0.00 0.00 974.8
20260509111539 11 209 3.2 9.7 0.00 0.00 0.00 974.8
20260509111015 11 194 0.0 0.0 0.00 0.00 0.00 974.8
20260509110513 11 203 0.0 0.0 0.00 0.00 0.00 974.8
20260509110024 11 198 6.4 0.0 0.00 0.00 0.00 974.8
20260509105514 11 197 0.0 6.4 0.00 0.00 0.00 974.8
20260509105013 11 230 0.0 0.0 0.00 0.00 0.00 974.8
20260509104514 11 241 0.0 4.8 0.00 0.00 0.00 974.8
20260509104016 11 197 0.0 0.0 0.00 0.00 0.00 974.8
20260509103522 11 241 0.0 0.0 0.00 0.00 0.00 974.8
20260509103015 11 230 0.0 0.0 0.00 0.00 0.00 974.8
20260509102521 11 198 0.0 0.0 0.00 0.00 0.00 974.8
20260509102014 11 191 0.0 0.0 0.00 0.00 0.00 974.8
20260509101540 11 223 0.0 0.0 0.00 0.00 0.00 974.8
20260509101014 11 240 0.0 0.0 0.00 0.00 0.00 974.8
20260509100517 11 193 0.0 0.0 0.00 0.00 0.00 974.8
20260509100015 11 209 0.0 0.0 0.00 0.00 0.00 974.8
20260509095515 12 204 0.0 0.0 0.00 0.00 0.00 974.8
20260509095014 12 167 6.4 6.4 0.00 0.00 0.00 974.8
20260509094514 12 230 0.0 0.0 0.00 0.00 0.00 974.8
20260509094013 12 248 6.4 6.4 0.00 0.00 0.00 974.8
20260509093515 12 226 6.4 4.8 0.00 0.00 0.00 974.8
20260509093015 12 207 3.2 6.4 0.00 0.00 0.00 974.8
20260509092534 12 209 0.0 0.0 0.00 0.00 0.00 974.8
20260509092014 12 237 4.8 9.7 0.00 0.00 0.00 974.8
20260509091515 12 190 6.4 6.4 0.00 0.00 0.00 975.8
20260509091014 11 206 0.0 0.0 0.00 0.00 0.00 975.8
20260509090540 11 176 4.8 0.0 0.00 0.00 0.00 975.8
20260509090015 11 177 4.8 6.4 0.00 0.00 0.00 975.8
20260509085513 11 225 6.4 6.4 0.00 0.00 0.00 975.8
20260509085013 11 221 4.8 6.4 0.00 0.00 0.00 975.8
20260509084515 11 163 0.0 0.0 0.00 0.00 0.00 975.8
20260509084015 11 218 0.0 6.4 0.00 0.00 0.00 975.8
20260509083514 11 210 6.4 6.4 0.00 0.00 0.00 975.8
20260509083014 11 230 4.8 0.0 0.00 0.00 0.00 975.8
20260509082513 11 219 4.8 0.0 0.00 0.00 0.00 975.8
20260509082013 11 234 0.0 4.8 0.00 0.00 0.00 975.8
20260509081516 11 196 4.8 6.4 0.00 0.00 0.00 975.8
20260509081013 12 262 3.2 12.9 0.00 0.00 0.00 975.8
20260509080513 12 222 0.0 0.0 0.00 0.00 0.00 975.8
20260509080016 12 203 0.0 0.0 0.00 0.00 0.00 975.8
20260509075518 12 244 4.8 6.4 0.00 0.00 0.00 975.8
20260509075036 12 226 0.0 6.4 0.00 0.00 0.00 975.8
20260509074514 12 213 0.0 0.0 0.00 0.00 0.00 975.8
20260509074015 12 222 0.0 0.0 0.00 0.00 0.00 975.8
20260509073514 12 198 0.0 0.0 0.00 0.00 0.00 975.8
20260509073025 12 205 4.8 6.4 0.00 0.00 0.00 975.8
20260509072526 12 217 0.0 4.8 0.00 0.00 0.00 975.8
20260509072018 12 201 3.2 4.8 0.00 0.00 0.00 975.8
20260509071515 12 246 6.4 6.4 0.00 0.00 0.00 976.8
20260509071016 12 193 3.2 0.0 0.00 0.00 0.00 976.8
20260509070514 12 239 4.8 4.8 0.00 0.00 0.00 976.8
20260509070019 12 186 0.0 9.7 0.00 0.00 0.00 976.8
20260509065517 12 216 0.0 0.0 0.00 0.00 0.00 976.8
20260509065013 12 207 6.4 0.0 0.00 0.00 0.00 976.8
20260509064518 12 188 8.0 4.8 0.00 0.00 0.00 976.8
20260509064014 12 212 6.4 9.7 0.00 0.00 0.00 976.8
20260509063513 12 223 6.4 0.0 0.00 0.00 0.00 976.8
20260509063025 12 240 4.8 6.4 0.00 0.00 0.00 977.8
20260509062535 12 223 4.8 8.0 0.00 0.00 0.00 977.8
20260509062014 12 229 4.8 0.0 0.00 0.00 0.00 977.8
20260509061517 12 220 4.8 0.0 0.00 0.00 0.00 977.8
20260509061017 12 225 0.0 3.2 0.00 0.00 0.00 977.8
20260509060518 12 186 0.0 0.0 0.00 0.00 0.00 977.8
20260509060015 12 204 3.2 0.0 0.00 0.00 0.00 977.8
20260509055520 12 185 0.0 0.0 0.00 0.00 0.00 977.8
20260509055013 12 246 0.0 8.0 0.00 0.00 0.00 977.8
20260509054520 12 219 3.2 6.4 0.00 0.00 0.00 977.8
20260509054025 12 249 0.0 8.0 0.00 0.00 0.00 977.8
20260509053513 12 202 4.8 3.2 0.00 0.00 0.00 977.8
20260509053015 12 223 6.4 3.2 0.00 0.00 0.00 977.8
20260509052514 12 212 3.2 0.0 0.00 0.00 0.00 977.8
20260509052038 12 202 0.0 4.8 0.00 0.00 0.00 977.8
20260509051514 13 189 0.0 4.8 0.00 0.00 0.00 977.8
20260509051014 13 207 0.0 0.0 0.00 0.00 0.00 977.8
20260509050514 13 204 3.2 8.0 0.00 0.00 0.00 977.8
20260509050015 13 202 3.2 0.0 0.00 0.00 0.00 977.8
20260509045513 13 203 4.8 4.8 0.00 0.00 0.00 977.8
20260509045014 13 204 0.0 6.4 0.00 0.00 0.00 977.8
20260509044514 13 199 0.0 0.0 0.00 0.00 0.00 977.8
20260509044015 13 239 4.8 9.7 0.00 0.00 0.00 977.8
20260509043515 13 204 4.8 0.0 0.00 0.00 0.00 977.8
20260509043015 13 225 6.4 4.8 0.00 0.00 0.00 977.8
20260509042535 13 226 0.0 0.0 0.00 0.00 0.00 977.8
20260509042035 13 217 6.4 8.0 0.00 0.00 0.00 977.8
20260509041516 13 198 4.8 8.0 0.00 0.00 0.00 977.8
20260509041022 13 172 4.8 12.9 0.00 0.00 0.00 977.8
20260509040515 13 216 0.0 0.0 0.00 0.00 0.00 977.8
20260509040020 12 157 6.4 0.0 0.00 0.00 0.00 977.8
20260509035518 12 181 0.0 0.0 0.00 0.00 0.00 977.8
20260509035040 12 196 3.2 8.0 0.00 0.00 0.00 977.8
20260509034518 12 187 9.7 0.0 0.00 0.00 0.00 977.8
20260509034016 12 172 0.0 0.0 0.00 0.00 0.00 977.8
20260509033543 12 222 0.0 3.2 0.00 0.00 0.00 977.8
20260509033015 12 194 0.0 0.0 0.00 0.00 0.00 977.8
20260509032515 12 192 0.0 0.0 0.00 0.00 0.00 977.8
20260509032036 12 206 0.0 0.0 0.00 0.00 0.00 977.8
20260509031534 12 206 0.0 0.0 0.00 0.00 0.00 977.8
20260509031017 12 206 0.0 0.0 0.00 0.00 0.00 977.8
20260509030516 12 206 0.0 0.0 0.00 0.00 0.00 977.8
20260509030017 12 206 0.0 0.0 0.00 0.00 0.00 978.8
20260509025514 12 140 0.0 0.0 0.00 0.00 0.00 978.8
20260509025020 12 141 0.0 0.0 0.00 0.00 0.00 978.8
20260509024514 13 141 0.0 0.0 0.00 0.00 0.00 978.8
20260509024016 13 141 0.0 0.0 0.00 0.00 0.00 978.8
20260509023524 13 141 0.0 0.0 0.00 0.00 0.00 978.8
20260509023014 13 141 0.0 0.0 0.00 0.00 0.00 978.8
20260509022516 13 141 0.0 0.0 0.00 0.00 0.00 978.8
20260509022014 13 141 0.0 0.0 0.00 0.00 0.00 978.8
20260509021514 13 141 0.0 0.0 0.00 0.00 0.00 978.8
20260509021017 13 141 0.0 0.0 0.00 0.00 0.00 978.8
20260509020514 13 141 0.0 0.0 0.00 0.00 0.00 978.8
20260509020025 13 141 0.0 0.0 0.00 0.00 0.00 978.8
20260509015516 13 141 0.0 0.0 0.00 0.00 0.00 978.8
20260509015014 13 141 0.0 0.0 0.00 0.00 0.00 978.8
20260509014515 13 141 0.0 0.0 0.00 0.00 0.00 978.8
20260509014013 13 141 0.0 0.0 0.00 0.00 0.00 978.8
20260509013536 13 141 0.0 0.0 0.00 0.00 0.00 978.8
20260509013013 14 141 0.0 0.0 0.00 0.00 0.00 978.8
20260509012513 14 141 0.0 0.0 0.00 0.00 0.00 978.8
20260509012015 14 141 0.0 0.0 0.00 0.00 0.00 978.8
20260509011514 14 141 0.0 0.0 0.00 0.00 0.00 978.8
20260509011014 14 141 0.0 0.0 0.00 0.00 0.00 978.8
20260509010515 14 140 0.0 0.0 0.00 0.00 0.00 978.8
20260509010015 15 140 0.0 0.0 0.00 0.00 0.00 978.8
20260509005514 15 140 0.0 0.0 0.00 0.00 0.00 978.8
20260509005018 15 140 0.0 0.0 0.00 0.00 0.00 978.8
20260509004517 15 147 0.0 0.0 0.00 0.00 0.00 978.8
20260509004014 15 147 0.0 0.0 0.00 0.00 0.00 978.8
20260509003514 15 147 0.0 0.0 0.00 0.00 0.00 978.8
20260509003021 15 147 0.0 0.0 0.00 0.00 0.00 978.8
20260509002535 15 157 0.0 0.0 0.00 0.00 0.00 978.8
20260509002039 16 144 0.0 0.0 0.00 0.00 0.00 978.8
20260509001513 16 144 0.0 0.0 0.00 0.00 0.00 978.8
20260509001014 16 144 0.0 0.0 0.00 0.00 0.00 978.8
20260509000543 16 144 0.0 0.0 0.00 0.00 0.00 978.8
20260509000048 16 183 0.0 3.2 0.00 0.00 0.00 978.8
20260508235520 16 150 0.0 0.0 0.00 0.00 0.00 978.8
20260508235039 16 167 0.0 0.0 0.00 0.00 0.00 978.8
20260508234515 16 158 0.0 0.0 0.00 0.00 0.00 978.8
20260508234014 16 158 0.0 0.0 0.00 0.00 0.00 978.8
20260508233516 16 159 0.0 0.0 0.00 0.00 0.00 978.8
20260508233035 17 163 0.0 0.0 0.00 0.00 0.00 978.8
20260508232513 17 161 0.0 0.0 0.00 0.00 0.00 978.8
20260508232015 17 161 0.0 0.0 0.00 0.00 0.00 978.8
20260508231542 17 161 0.0 0.0 0.00 0.00 0.00 978.8
20260508231018 17 193 0.0 0.0 0.00 0.00 0.00 978.8
20260508230520 17 153 0.0 0.0 0.00 0.00 0.00 978.8
20260508230017 17 154 0.0 0.0 0.00 0.00 0.00 978.8
20260508225522 17 110 0.0 0.0 0.00 0.00 0.00 978.8
20260508225014 17 142 0.0 0.0 0.00 0.00 0.00 978.8
20260508224517 17 142 0.0 0.0 0.00 0.00 0.00 978.8
20260508224013 17 142 0.0 0.0 0.00 0.00 0.00 978.8
20260508223515 17 155 0.0 0.0 0.00 0.00 0.00 978.8
20260508223022 17 120 0.0 0.0 0.00 0.00 0.00 978.8
20260508222514 17 120 0.0 0.0 0.00 0.00 0.00 978.8
20260508222014 17 120 0.0 0.0 0.00 0.00 0.00 978.8
20260508221514 17 101 0.0 0.0 0.00 0.00 0.00 978.8
20260508221014 17 88 0.0 0.0 0.00 0.00 0.00 978.8
20260508220541 17 83 0.0 0.0 0.00 0.00 0.00 978.8
20260508220015 17 159 0.0 0.0 0.00 0.00 0.00 978.8
20260508215514 17 165 0.0 0.0 0.00 0.00 0.00 978.8
20260508215014 17 165 0.0 0.0 0.00 0.00 0.00 978.8
20260508214534 18 198 0.0 0.0 0.00 0.00 0.00 979.8
20260508214013 18 218 0.0 0.0 0.00 0.00 0.00 979.8
20260508213518 18 168 0.0 0.0 0.00 0.00 0.00 979.8
20260508213014 18 137 0.0 0.0 0.00 0.00 0.00 979.8
20260508212513 18 137 0.0 4.8 0.00 0.00 0.00 979.8
20260508212016 18 100 0.0 0.0 0.00 0.00 0.00 979.8
20260508211513 18 54 0.0 0.0 0.00 0.00 0.00 979.8
20260508211023 18 54 0.0 0.0 0.00 0.00 0.00 979.8
20260508210513 18 54 0.0 0.0 0.00 0.00 0.00 979.8
20260508210018 18 54 0.0 0.0 0.00 0.00 0.00 979.8
20260508205522 18 99 0.0 0.0 0.00 0.00 0.00 979.8
20260508205018 18 98 0.0 0.0 0.00 0.00 0.00 979.8
20260508204523 18 105 0.0 0.0 0.00 0.00 0.00 979.8
20260508204037 18 86 0.0 0.0 0.00 0.00 0.00 979.8
20260508203515 18 93 0.0 0.0 0.00 0.00 0.00 979.8
20260508203014 19 113 0.0 0.0 0.00 0.00 0.00 980.8
20260508202513 19 137 0.0 0.0 0.00 0.00 0.00 980.8
20260508202014 20 137 0.0 0.0 0.00 0.00 0.00 980.8
20260508201516 20 137 0.0 0.0 0.00 0.00 0.00 980.8
20260508201014 20 219 0.0 0.0 0.00 0.00 0.00 980.8
20260508200537 20 119 0.0 0.0 0.00 0.00 0.00 980.8
20260508200023 19 65 0.0 0.0 0.00 0.00 0.00 980.8
20260508195514 19 63 0.0 0.0 0.00 0.00 0.00 980.8
20260508195016 19 38 0.0 4.8 0.00 0.00 0.00 980.8
20260508194514 19 74 0.0 0.0 0.00 0.00 0.00 980.8
20260508194018 19 63 0.0 0.0 0.00 0.00 0.00 980.8
20260508193514 19 63 0.0 0.0 0.00 0.00 0.00 980.8
20260508193017 19 49 0.0 0.0 0.00 0.00 0.00 980.8
20260508192519 20 37 0.0 3.2 0.00 0.00 0.00 980.8